sat.trackr.live / text

‹ back to catalog

SUPERVIEW NEO-3 02

NORAD 63208 · 2025-051A

PAYLOAD ACTIVE UNKNOWN

§ Identity

Operator
Country
PRC
Launch date
2025-03-15
Launch site
JSC
Launch vehicle
Mass (kg)
RCS (m²)

External: N2YO · Heavens-Above · Gunter

§ Orbital elements

Epoch: 2026-09-22T23:15:31.560192Z

Period
94.61 min
Inclination
97.4455°
Eccentricity
0.0001784
Mean motion
15.22062427 rev/d
Perigee alt
498.4 km
Apogee alt
500.8 km
Semi-major
6,877.8 km
B*
2.5792e-4
RAAN
344.2997°
Arg perigee
127.6132°
Mean anomaly
232.5266°
Rev number
8,471

§ Raw data

SUPERVIEW NEO-3 021 63208U 25051A   26265.96911528  .00005830  00000+0  25792-3 0  99972 63208  97.4455 344.2997 0001784 127.6132 232.5266 15.22062427 84712

JSON: /api/v1/satellites/63208 · /tle

For live sub-satellite position, see the globe view (requires WebGL).

§ Visibility from observer

Set your observer location to see the next 7 days of passes ≥ 10°. The values pass through the URL so the page stays shareable.

No JS? Fill the form by hand. The geolocation button needs JavaScript.